EA7EQC-13 Weather Reports


time (UTC)temp
C
wind
direction
speed
KPH
gust
KPH
rain 1hr
cm
rain 24hr
cm
rain mn
cm
humidity
%
barometer
mb
20260507141803 20 173 9.7 24.1 0.00 0.00 0.00 49 1010.0
20260507140903 20 206 9.7 20.9 0.00 0.00 0.00 47 1010.4
20260507140003 20 209 11.3 22.5 0.00 0.00 0.00 46 1010.4
20260507135403 20 197 9.7 22.5 0.00 0.00 0.00 48 1010.5
20260507134503 20 187 9.7 22.5 0.00 0.00 0.00 48 1010.4
20260507133603 20 188 8.0 16.1 0.00 0.00 0.00 48 1010.5
20260507132703 20 205 8.0 25.7 0.00 0.00 0.00 48 1010.4
20260507131803 21 177 6.4 12.9 0.00 0.00 0.00 46 1010.4
20260507131117 20 133 11.3 25.7 0.00 0.00 0.00 45 1010.5
20260507130003 21 157 8.0 17.7 0.00 0.00 0.00 43 1010.6
20260507125403 21 170 8.0 20.9 0.00 0.00 0.00 45 1010.7
20260507124503 20 167 9.7 37.0 0.00 0.00 0.00 46 1010.8
20260507123818 21 183 11.3 37.0 0.00 0.00 0.00 46 1010.7
20260507122705 20 146 12.9 24.1 0.00 0.00 0.00 47 1011.0
20260507121803 20 142 16.1 27.4 0.00 0.00 0.00 44 1011.0
20260507120903 20 141 16.1 27.4 0.00 0.00 0.00 44 1011.2
20260507120003 20 143 14.5 29.0 0.00 0.00 0.00 47 1011.0
20260507115403 20 155 12.9 27.4 0.00 0.00 0.00 46 1011.0
20260507114503 19 147 16.1 27.4 0.00 0.00 0.00 49 1011.3
20260507113603 19 141 11.3 22.5 0.00 0.00 0.00 51 1011.5
20260507112703 18 136 16.1 24.1 0.00 0.00 0.00 52 1011.5
20260507111803 19 146 11.3 24.1 0.00 0.00 0.00 54 1011.6
20260507110903 18 151 11.3 22.5 0.00 0.00 0.00 55 1011.6
20260507110003 18 151 14.5 25.7 0.00 0.00 0.00 56 1011.7
20260507105617 18 149 12.9 24.1 0.00 0.00 0.00 59 1011.8
20260507104503 18 144 12.9 22.5 0.00 0.00 0.00 56 1011.7
20260507103603 19 156 11.3 24.1 0.00 0.00 0.00 59 1011.9
20260507102703 18 154 8.0 17.7 0.00 0.00 0.00 62 1011.8
20260507101803 18 133 8.0 20.9 0.00 0.00 0.00 59 1011.8
20260507100903 17 138 6.4 14.5 0.00 0.00 0.00 61 1011.9
20260507100217 18 121 4.8 14.5 0.00 0.00 0.00 61 1012.0
20260507095403 17 139 6.4 16.1 0.00 0.00 0.00 60 1012.1
20260507094503 18 124 3.2 16.1 0.00 0.00 0.00 59 1012.1
20260507093603 17 146 4.8 12.9 0.00 0.00 0.00 60 1012.2
20260507092916 17 147 3.2 11.3 0.00 0.00 0.00 60 1012.1
20260507091803 16 116 3.2 9.7 0.00 0.00 0.00 62 1012.3
20260507091117 16 112 3.2 6.4 0.00 0.00 0.00 62 1012.3
20260507090004 15 129 3.2 6.4 0.00 0.00 0.00 63 1012.3
20260507085403 15 106 3.2 4.8 0.00 0.00 0.00 61 1012.3
20260507084503 15 130 4.8 9.7 0.00 0.00 0.00 64 1012.2
20260507083603 15 136 3.2 6.4 0.00 0.00 0.00 64 1012.2
20260507082918 15 139 1.6 6.4 0.00 0.00 0.00 62 1012.3
20260507081803 15 173 1.6 3.2 0.00 0.00 0.00 62 1012.1
20260507080903 15 136 1.6 3.2 0.00 0.00 0.00 62 1012.1
20260507080218 13 130 1.6 3.2 0.00 0.00 0.00 65 1012.1
20260507075403 14 107 1.6 3.2 0.00 0.00 0.00 66 1012.1
20260507074503 14 81 1.6 3.2 0.00 0.00 0.00 67 1012.1
20260507073818 13 74 1.6 4.8 0.00 0.00 0.00 68 1012.1
20260507072703 13 85 1.6 1.6 0.00 0.00 0.00 74 1012.1
20260507071803 12 129 0.0 1.6 0.00 0.00 0.00 74 1012.0
20260507070903 12 149 1.6 3.2 0.00 0.00 0.00 78 1012.1
20260507070005 12 135 1.6 3.2 0.00 0.00 0.00 78 1012.2
20260507065403 11 149 1.6 3.2 0.00 0.00 0.00 80 1012.0
20260507064503 11 143 1.6 3.2 0.00 0.00 0.00 82 1012.0
20260507063818 11 149 1.6 3.2 0.00 0.00 0.00 82 1011.9
20260507062703 10 152 3.2 4.8 0.00 0.00 0.00 83 1011.8
20260507062016 11 156 1.6 3.2 0.00 0.00 0.00 82 1011.6
20260507060903 10 160 1.6 3.2 0.00 0.00 0.00 83 1011.4
20260507060217 11 150 1.6 3.2 0.00 0.00 0.00 82 1011.5
20260507055617 11 138 1.6 3.2 0.00 0.00 0.00 80 1011.0
20260507054503 11 125 1.6 3.2 0.00 0.00 0.00 81 1011.2
20260507053603 11 108 1.6 3.2 0.00 0.00 0.00 80 1010.9
20260507052703 11 108 0.0 3.2 0.00 0.00 0.00 81 1010.7
20260507051803 11 108 1.6 1.6 0.00 0.00 0.00 82 1010.6
20260507050903 11 108 1.6 4.8 0.00 0.00 0.00 81 1010.7
20260507050003 11 108 3.2 4.8 0.00 0.00 0.00 80 1010.8
20260507045403 11 108 4.8 6.4 0.00 0.00 0.00 80 1010.9
20260507044503 11 108 3.2 6.4 0.00 0.00 0.00 78 1010.8
20260507043603 11 108 1.6 3.2 0.00 0.00 0.00 81 1010.9
20260507042703 11 108 3.2 4.8 0.00 0.00 0.00 82 1010.8
20260507042018 11 108 3.2 4.8 0.00 0.00 0.00 81 1010.7
20260507040903 11 108 1.6 3.2 0.00 0.00 0.00 79 1010.7
20260507040003 11 108 1.6 3.2 0.00 0.00 0.00 79 1010.6
20260507035403 12 108 1.6 3.2 0.00 0.00 0.00 77 1010.6
20260507034503 12 108 1.6 3.2 0.00 0.00 0.00 78 1010.6
20260507033603 12 110 1.6 3.2 0.00 0.00 0.00 78 1010.6
20260507032703 12 112 1.6 3.2 0.00 0.00 0.00 78 1010.8
20260507031803 11 117 1.6 3.2 0.00 0.00 0.00 80 1010.5
20260507030903 11 119 1.6 3.2 0.00 0.00 0.00 79 1010.6
20260507030003 11 126 1.6 3.2 0.00 0.00 0.00 80 1010.6
20260507025403 11 133 1.6 3.2 0.00 0.00 0.00 80 1010.7
20260507024717 11 138 1.6 3.2 0.00 0.00 0.00 80 1010.6
20260507023603 11 132 1.6 3.2 0.00 0.00 0.00 80 1010.6
20260507022703 12 126 1.6 3.2 0.00 0.00 0.00 79 1010.6
20260507021803 12 132 1.6 4.8 0.00 0.00 0.00 79 1010.4
20260507020903 12 125 3.2 4.8 0.00 0.00 0.00 78 1010.7
20260507020003 12 126 1.6 3.2 0.00 0.00 0.00 78 1010.6
20260507015403 12 141 4.8 6.4 0.00 0.00 0.00 78 1010.5
20260507014503 12 145 6.4 9.7 0.00 0.00 0.00 78 1010.6
20260507013603 12 150 8.0 11.3 0.00 0.00 0.00 77 1010.7
20260507012703 12 160 4.8 11.3 0.00 0.00 0.00 76 1010.7
20260507012017 12 155 6.4 12.9 0.00 0.00 0.00 76 1010.7
20260507010903 12 156 8.0 12.9 0.00 0.00 0.00 77 1010.9
20260507010003 12 157 8.0 14.5 0.00 0.00 0.00 76 1010.7
20260507005403 12 155 6.4 14.5 0.00 0.00 0.00 76 1010.9
20260507004716 13 168 4.8 11.3 0.00 0.00 0.00 74 1010.9
20260507003603 13 194 8.0 14.5 0.00 0.00 0.00 74 1011.0
20260507002917 13 200 8.0 14.5 0.00 0.00 0.00 73 1011.0
20260507001803 13 160 4.8 11.3 0.00 0.00 0.00 74 1011.2
20260507000903 13 188 6.4 11.3 0.00 0.00 0.00 74 1011.5
20260507000009 13 173 6.4 11.3 0.00 0.00 0.00 74 1011.5
20260506235403 13 168 6.4 12.9 0.00 0.00 0.00 74 1011.5
20260506234503 13 161 6.4 11.3 0.00 0.00 0.00 73 1011.5
20260506233603 13 172 6.4 12.9 0.00 0.00 0.00 72 1011.5
20260506232917 14 186 6.4 12.9 0.00 0.00 0.00 71 1011.6
20260506231803 14 182 8.0 16.1 0.00 0.00 0.00 70 1011.5
20260506230903 14 184 8.0 14.5 0.00 0.00 0.00 69 1011.5
20260506230003 14 189 6.4 16.1 0.00 0.00 0.00 68 1011.4
20260506225618 14 184 8.0 16.1 0.00 0.00 0.00 67 1011.5
20260506224504 15 192 8.0 20.9 0.00 0.00 0.00 66 1011.4
20260506223603 15 180 6.4 16.1 0.00 0.00 0.00 64 1011.3
20260506222703 15 187 8.0 17.7 0.00 0.00 0.00 63 1011.2
20260506221803 15 198 9.7 22.5 0.00 0.00 0.00 62 1011.2
20260506220903 15 185 8.0 16.1 0.00 0.00 0.00 61 1011.0
20260506220003 15 165 8.0 16.1 0.00 0.00 0.00 60 1011.0
20260506215403 15 160 8.0 16.1 0.00 0.00 0.00 59 1011.4
20260506214717 16 171 6.4 14.5 0.00 0.00 0.00 57 1011.3
20260506213603 16 163 9.7 16.1 0.00 0.00 0.00 56 1011.2
20260506212703 16 161 9.7 29.0 0.00 0.00 0.00 51 1011.0
20260506211803 17 142 3.2 6.4 0.00 0.00 0.00 43 1010.4
20260506210903 19 182 3.2 4.8 0.00 0.00 0.00 37 1010.6
20260506210003 20 199 4.8 6.4 0.00 0.00 0.00 36 1010.3
20260506205403 20 201 4.8 6.4 0.00 0.00 0.00 36 1010.4
20260506204503 20 203 4.8 6.4 0.00 0.00 0.00 36 1010.1
20260506203603 20 204 4.8 6.4 0.00 0.00 0.00 36 1010.2
20260506202918 20 200 4.8 9.7 0.00 0.00 0.00 37 1010.0
20260506201803 20 186 3.2 6.4 0.00 0.00 0.00 37 1010.0
20260506200903 20 171 1.6 4.8 0.00 0.00 0.00 37 1010.1
20260506200003 20 190 3.2 4.8 0.00 0.00 0.00 36 1009.8
20260506195403 20 187 3.2 4.8 0.00 0.00 0.00 36 1009.9
20260506194503 20 169 1.6 4.8 0.00 0.00 0.00 36 1009.7
20260506193603 20 161 1.6 3.2 0.00 0.00 0.00 35 1009.7
20260506192703 20 173 3.2 3.2 0.00 0.00 0.00 34 1009.7
20260506191803 20 185 3.2 4.8 0.00 0.00 0.00 34 1009.6
20260506190903 20 188 3.2 6.4 0.00 0.00 0.00 33 1009.6
20260506190004 21 186 4.8 9.7 0.00 0.00 0.00 33 1009.6
20260506185403 21 183 3.2 9.7 0.00 0.00 0.00 33 1009.4
20260506184503 21 154 1.6 4.8 0.00 0.00 0.00 34 1009.4
20260506183603 22 164 1.6 4.8 0.00 0.00 0.00 34 1009.4
20260506182703 22 195 3.2 11.3 0.00 0.00 0.00 32 1009.4
20260506182017 22 198 4.8 11.3 0.00 0.00 0.00 32 1009.3
20260506180903 22 177 3.2 9.7 0.00 0.00 0.00 33 1009.5
20260506180218 22 192 3.2 9.7 0.00 0.00 0.00 34 1009.3
20260506175403 22 168 1.6 4.8 0.00 0.00 0.00 33 1009.6
20260506174717 22 189 3.2 9.7 0.00 0.00 0.00 33 1009.6
20260506173603 22 199 6.4 12.9 0.00 0.00 0.00 32 1009.5
20260506172703 22 178 4.8 11.3 0.00 0.00 0.00 32 1009.5
20260506172017 22 196 3.2 9.7 0.00 0.00 0.00 32 1009.6
20260506170903 21 215 4.8 12.9 0.00 0.00 0.00 31 1009.7
20260506170218 22 218 6.4 14.5 0.00 0.00 0.00 31 1009.9
20260506165403 22 214 4.8 11.3 0.00 0.00 0.00 30 1009.8
20260506164503 21 205 6.4 12.9 0.00 0.00 0.00 31 1009.9
20260506163603 21 172 6.4 14.5 0.00 0.00 0.00 31 1009.9
20260506162703 21 150 8.0 14.5 0.00 0.00 0.00 33 1009.7
20260506161803 22 171 6.4 12.9 0.00 0.00 0.00 33 1009.9
20260506160903 22 168 6.4 20.9 0.00 0.00 0.00 33 1010.2
20260506160003 21 182 4.8 12.9 0.00 0.00 0.00 32 1010.1
20260506155403 21 150 3.2 12.9 0.00 0.00 0.00 30 1010.2
20260506154503 21 168 3.2 9.7 0.00 0.00 0.00 30 1010.3
20260506153603 22 218 4.8 11.3 0.00 0.00 0.00 30 1010.2
20260506152703 22 235 6.4 14.5 0.00 0.00 0.00 29 1010.3
20260506151803 22 207 8.0 12.9 0.00 0.00 0.00 32 1010.4
20260506150903 22 186 3.2 12.9 0.00 0.00 0.00 31 1010.4
20260506150217 21 159 3.2 9.7 0.00 0.00 0.00 32 1010.6
20260506145616 21 160 4.8 14.5 0.00 0.00 0.00 32 1010.8
20260506144503 21 238 6.4 12.9 0.00 0.00 0.00 32 1010.9
20260506143603 21 222 6.4 16.1 0.00 0.00 0.00 33 1011.0
20260506142703 21 172 6.4 14.5 0.00 0.00 0.00 35 1011.2